This is the latest recevied weather packets stored in our database for station/object KD4PMP. If no packets are shown the sender has not sent any weather packets the latest 10 day(s).
| Time | Temp. | Humidity | Pressure | Rain* | Wind** | Luminosity | Snow |
|---|---|---|---|---|---|---|---|
| 1777509006 | 18.89° C | 77% | 1012.1 hPa | 0 mm | - | - | - |
| 1777508405 | 18.89° C | 75% | 1011.9 hPa | 0 mm | - | - | - |
| 1777507805 | 19.44° C | 75% | 1011.9 hPa | 0 mm | - | - | - |
| 1777507204 | 19.44° C | 74% | 1012 hPa | 0 mm | - | - | - |
| 1777506604 | 19.44° C | 72% | 1012 hPa | 0 mm | - | - | - |
| 1777506004 | 20° C | 71% | 1012 hPa | 0 mm | - | - | - |
| 1777505404 | 20° C | 69% | 1011.9 hPa | 0 mm | - | - | - |
| 1777504803 | 20.56° C | 70% | 1012 hPa | 0 mm | - | - | - |
| 1777504203 | 20.56° C | 71% | 1012 hPa | 0 mm | - | - | - |
| 1777503603 | 20.56° C | 70% | 1011.8 hPa | 0 mm | - | - | - |
| 1777503003 | 20.56° C | 71% | 1011.6 hPa | 0 mm | - | - | - |
| 1777502403 | 20.56° C | 70% | 1012 hPa | 0 mm | - | - | - |
| 1777501802 | 20.56° C | 71% | 1012 hPa | 0 mm | - | - | - |
| 1777501202 | 20° C | 74% | 1011.9 hPa | 0 mm | - | - | - |
| 1777500602 | 19.44° C | 73% | 1012.2 hPa | 0 mm | - | - | - |
| 1777500001 | 19.44° C | 72% | 1012.2 hPa | 0 mm | - | - | - |
| 1777499401 | 20° C | 73% | 1012 hPa | 0 mm | - | - | - |
| 1777498800 | 19.44° C | 77% | 1012.1 hPa | 0 mm | - | - | - |
| 1777498200 | 19.44° C | 76% | 1012.2 hPa | 0 mm | - | - | - |
| 1777497600 | 19.44° C | 78% | 1012.2 hPa | 0 mm | - | - | - |
| 1777497000 | 18.89° C | 81% | 1012.4 hPa | 0 mm | - | - | - |
| 1777496400 | 18.33° C | 80% | 1012.4 hPa | 0 mm | - | - | - |
| 1777495799 | 18.89° C | 82% | 1012.4 hPa | 0 mm | - | - | - |
| 1777495199 | 18.89° C | 83% | 1012.5 hPa | 0 mm | - | - | - |
| 1777494599 | 18.89° C | 82% | 1012.6 hPa | 0 mm | - | - | - |
* Rain latest hour (hover to see other rain measurements)
** Current wind speed in m/s (hover to see current wind gust speed)